Weather History for La Grande Riviere, QC

Change the Weather History Date:

Tuesday, July 30, 2013

  Actual Average Record
Temperature  
Mean Temperature 64 °F -  
Max Temperature 81 °F 63 °F 84 °F (2001)
Min Temperature 46 °F 46 °F 41 °F (2010)
Degree Days  
Heating Degree Days 2    
Growing Degree Days 14 (Base 50)    
Moisture  
Dew Point 48 °F    
Average Humidity 58    
Maximum Humidity 93    
Minimum Humidity 28    
Precipitation  
Precipitation 0.00 in - - ()
Sea Level Pressure  
Sea Level Pressure 29.99 in    
Wind  
Wind Speed 5 mph ()    
Max Wind Speed 14 mph    
Max Gust Speed 21 mph    
Visibility 15.0 miles    
Events      
Averages and records for this station are not official NWS values.
T = Trace of Precipitation, MM = Missing Value Source: Averaged Metar Reports

Daily Weather History Graph

Daily Weather History Graph

Search for Another Location

Airport:

Trip Planner

Search our weather history database for the weather conditions in past years. The results will help you decide how hot, cold, wet, or windy it might be!

Date:

Astronomy

Jul. 30, 2013 Rise Set
Actual Time 5:23 AM EDT 9:10 PM EDT
Civil Twilight 4:38 AM EDT 9:54 PM EDT
Nautical Twilight 3:36 AM EDT 10:56 PM EDT
Astronomical Twilight 1:49 AM EDT 12:55 AM EDT
Moon No Moon Rise 3:24 PM EDT (7/30)
Length of Visible Light 17h 15m
Length of Day
15h 47m
Last Quarter, 41% of the Moon is Illuminated
Jul 30
Last Quarter
Aug 6
New
Aug 14
First Quarter
Aug 20
Full
Aug 28
Last Quarter

Hourly Weather History & Observations

Time (EDT) Temp. Windchill Dew Point Humidity Pressure Visibility Wind Dir Wind Speed Gust Speed Precip Events Conditions
12:00 AM 53.6 °F - 46.4 °F 77% 30.00 in 15.0 mi Calm Calm - N/A   Partly Cloudy
1:00 AM 51.8 °F - 46.4 °F 82% 30.00 in 15.0 mi West 3.5 mph - N/A   Partly Cloudy
2:00 AM 51 °F - 45 °F 72% 30.01 in 15 mi WSW 2.3 mph - -   Clear
2:00 AM 51.8 °F - 44.6 °F 76% 30.01 in 15.0 mi WSW 2.3 mph - N/A   Partly Cloudy
3:00 AM 48.2 °F - 44.6 °F 87% 30.01 in 15.0 mi West 3.5 mph - N/A   Partly Cloudy
4:00 AM 46.4 °F - 44.6 °F 93% 30.01 in 15.0 mi South 2.3 mph - N/A   Partly Cloudy
5:00 AM 46.4 °F 45.2 °F 44.6 °F 93% 30.01 in 15.0 mi WSW 3.5 mph - N/A   Scattered Clouds
6:00 AM 48.2 °F - 44.6 °F 87% 30.02 in 15.0 mi SE 4.6 mph - N/A   Scattered Clouds
7:00 AM 53.6 °F - 48.2 °F 82% 30.02 in 15.0 mi SSE 3.5 mph - N/A   Partly Cloudy
8:00 AM 58 °F - 47 °F 57% 30.02 in 15 mi South 5.8 mph - -   Clear
8:00 AM 57.2 °F - 46.4 °F 67% 30.02 in 15.0 mi South 6.9 mph - N/A   Partly Cloudy
9:00 AM 62.6 °F - 48.2 °F 59% 30.02 in 15.0 mi SSW 5.8 mph - N/A   Partly Cloudy
10:00 AM 68.0 °F - - N/A% 30.02 in 15.0 mi West 9.2 mph - N/A   Partly Cloudy
11:00 AM 71.6 °F - 50.0 °F 46% 30.01 in 15.0 mi West 11.5 mph - N/A   Partly Cloudy
12:00 PM 80.6 °F - 50.0 °F 34% 30.01 in 15.0 mi West 11.5 mph - N/A   Scattered Clouds
1:00 PM 75.2 °F - 50.0 °F 41% 29.99 in 15.0 mi West 13.8 mph 20.7 mph N/A   Scattered Clouds
2:00 PM 76 °F - 49 °F 28% 30.00 in 15 mi Calm Calm - -   Scattered Clouds
2:00 PM 77.0 °F - 48.2 °F 36% 29.99 in 15.0 mi West 11.5 mph - N/A   Mostly Cloudy
3:00 PM 77.0 °F - 48.2 °F 36% 29.99 in 15.0 mi West 12.7 mph - N/A   Mostly Cloudy
4:00 PM 78.8 °F - 48.2 °F 34% 29.97 in 15.0 mi WSW 8.1 mph - N/A   Mostly Cloudy
5:00 PM 77.0 °F - 48.2 °F 36% 29.97 in 15.0 mi South 11.5 mph - N/A   Mostly Cloudy
6:00 PM 77.0 °F - 46.4 °F 34% 29.96 in 15.0 mi SSW 10.4 mph - N/A   Mostly Cloudy
7:00 PM 75.2 °F - 46.4 °F 36% 29.96 in 15.0 mi SSW 9.2 mph - N/A   Partly Cloudy
8:00 PM 73 °F - 51 °F 34% 29.96 in 15 mi SW 6.9 mph - -   Scattered Clouds
8:00 PM 73.4 °F - 50.0 °F 44% 29.96 in 15.0 mi SW 6.9 mph - N/A   Partly Cloudy
9:00 PM 68.0 °F - 51.8 °F 56% 29.95 in 15.0 mi SSW 5.8 mph - N/A   Partly Cloudy
10:00 PM 64.4 °F - 51.8 °F 64% 29.95 in 15.0 mi SSW 5.8 mph - N/A   Partly Cloudy
11:00 PM 62.6 °F - 51.8 °F 68% 29.95 in 15.0 mi South 4.6 mph - N/A   Partly Cloudy